sat.trackr.live / text

‹ back to catalog

STARLINK-32694

NORAD 62494 · 2025-003H

PAYLOAD ACTIVE UNKNOWN

§ Identity

Operator
Country
US
Launch date
2025-01-06
Launch site
AFETR
Launch vehicle
Mass (kg)
RCS (m²)

Purposes: comms

External: N2YO · Heavens-Above · Gunter

§ Orbital elements

Epoch: 2026-05-24T22:09:16.716096Z

Period
94.27 min
Inclination
43.0027°
Eccentricity
0.0001935
Mean motion
15.27598822 rev/d
Perigee alt
481.7 km
Apogee alt
484.3 km
Semi-major
6,861.1 km
B*
3.0352e-4
RAAN
218.1726°
Arg perigee
276.0983°
Mean anomaly
83.9648°
Rev number
7,833

§ Raw data

STARLINK-326941 62494U 25003H   26144.92311014  .00008104  00000+0  30352-3 0  99912 62494  43.0027 218.1726 0001935 276.0983  83.9648 15.27598822 78331

JSON: /api/v1/satellites/62494 · /tle

For live sub-satellite position, see the globe view (requires WebGL).

§ Visibility from observer

Set your observer location to see the next 7 days of passes ≥ 10°. The values pass through the URL so the page stays shareable.

No JS? Fill the form by hand. The geolocation button needs JavaScript.